map of STM home
Great Circle Mapper logo
STM - Airport
Location
City:  Santarém, Pará, Brazil
Name:Santarém - Maestro Wilson Fonseca Airport
ICAO / IATA:SBSN / STM

Details
Type:Airport (Aerodrome, Airfield)
Use:Public/Civil, International (customs port of entry)
Latitude:2°25'21"S (-2.422430)
Longitude:54°47'34"W (-54.792788)
Datum:WGS 1984
Elevation:198 ft (60 m)
Variation:18.20°W (WMM2015 magnetic declination)
-0.08° annual change
Runways:1
Longest:7874 × 148 ft (2400 × 45 m), paved

Time
Time Zone:UTC-4
Local Time:

Weather
METAR:SBSN 070800Z 06010KT 9999 SCT010 BKN100 24/23 Q1011
TAF:SBSN 070400Z 0706/0806 07008KT 9999 FEW015 TN26/0708Z TX33/0717Z
BECMG 0712/0714 09015KT BKN020
BECMG 0722/0724 12005KT FEW015
RMK PEH

Related Locations
Nearby:
Farthest:MDC: 12368 mi / 19904 km
Manado [Sam Ratulangi], SA, ID

Find:

   beyond  
but within

Other Information
Maps:
NOTAMs:
Links:
Sources:

  
flag of Brazil
flag of Pará
  

Sectional Chart

Flight Planning
at skyvector.com

Satellite Image

Google Maps Satellite view

 

Copyright © 2004-2016 Karl L. Swartz. All rights reserved.
The Great Circle Mapper name and logo are trademarks of the Great Circle Mapper.
All other trademarks mentioned herein belong to their respective owners.
Please see credits for attibutions and further copyright information.

  Follow gcmap on Facebook Follow gcmap on Twitter Follow gcmap on Google+ GCmap on LinkedIn

hCard Microformat

Geo Microformat